Location: Newark
(34.9500°N, 139.9667°E)
Time: 16:30:08
(UTC+00:00)

Transit 2A - Pass Details

Date: 11 December 2019
Orbit: 601 x 958 km, 66.7° (Epoch: 24 January)

Event Time Altitude Azimuth Distance (km) Brightness Sun altitude
Rises 21:15:04 0° 217° (SW) 3,156 9.1 -5.0°
Reaches altitude 10° 21:17:35 10° 221° (SW) 2,180 8.2 -4.6°
Maximum altitude 21:22:22 53° 298° (WNW) 818 5.9 -3.7°
Drops below altitude 10° 21:26:48 10° 16° (NNE) 2,016 8.1 -2.9°
Sets 21:29:03 0° 22° (NNE) 2,897 9.0 -2.5°
